ID Time Temp Humidity Light PM2.5 PM10 Voltage Extra Firmware Position Fcnt TTN version Gateways Distance RSSI LSNR Radiosettings
2026-05-08 21:16:28 14.5°C 83.4375% 3.37V v254 52.0681 / 5.11288 4953 ttn.v3 4.072km -107 -5.75 867.3MHz, SF10BW125, 4/5CR
0.533km -106 -6.5 867.3MHz, SF10BW125, 4/5CR
2026-05-08 21:00:28 14.6875°C 82.0625% 3.37V v254 52.0681 / 5.11288 4952 ttn.v3 0.533km -106 -2.8 868.1MHz, SF10BW125, 4/5CR
2026-05-08 20:44:28 15.0625°C 79.5625% 3.37V v254 52.0681 / 5.11288 4951 ttn.v3 4.072km -106 -10 867.1MHz, SF10BW125, 4/5CR
0.533km -106 -11.5 867.1MHz, SF10BW125, 4/5CR
- -129 -12.25 867.1MHz, SF10BW125, 4/5CR
2.425km -132 -16 867.1MHz, SF10BW125, 4/5CR
2026-05-08 20:28:28 15.3125°C 78.625% 3.37V v254 52.0681 / 5.11288 4950 ttn.v3 0.533km -103 -7.2 868.5MHz, SF10BW125, 4/5CR
2026-05-08 20:12:27 15.75°C 76.25% 3.37V v254 52.0681 / 5.11288 4949 ttn.v3 0.533km -107 -10 867.9MHz, SF10BW125, 4/5CR
2026-05-08 19:56:26 16.125°C 75.1875% 3.37V v254 52.0681 / 5.11288 4948 ttn.v3 0.533km -104 -7.2 868.3MHz, SF10BW125, 4/5CR
2026-05-08 19:40:26 16.25°C 74.875% 3.37V v254 52.0681 / 5.11288 4947 ttn.v3 0.533km -106 -5.8 867.7MHz, SF10BW125, 4/5CR
2026-05-08 19:24:25 16.3125°C 71.6875% 3.37V v254 52.0681 / 5.11288 4946 ttn.v3 0.533km -107 -4.2 868.1MHz, SF10BW125, 4/5CR
2026-05-08 19:08:24 16.5625°C 72.5% 3.37V v254 52.0681 / 5.11288 4945 ttn.v3 0.533km -101 -9.8 867.5MHz, SF10BW125, 4/5CR
2026-05-08 18:52:23 16.5625°C 69.25% 3.37V v254 52.0681 / 5.11288 4944 ttn.v3 0.533km -104 -5.5 868.5MHz, SF10BW125, 4/5CR
2026-05-08 18:36:22 17.0625°C 63.625% 3.37V v254 52.0681 / 5.11288 4943 ttn.v3 4.072km -107 -7 867.3MHz, SF10BW125, 4/5CR
0.533km -106 -7.8 867.3MHz, SF10BW125, 4/5CR
2026-05-08 18:04:21 16.8125°C 66.375% 3.37V v254 52.0681 / 5.11288 4941 ttn.v3 4.072km -109 -6.25 867.1MHz, SF10BW125, 4/5CR
- -129 -12 867.1MHz, SF10BW125, 4/5CR
0.533km -106 -12 867.1MHz, SF10BW125, 4/5CR
2.425km -133 -16.25 867.1MHz, SF10BW125, 4/5CR
2026-05-08 17:48:20 16.9375°C 65.625% 3.37V v254 52.0681 / 5.11288 4940 ttn.v3 0.533km -106 -2.2 868.1MHz, SF10BW125, 4/5CR
2026-05-08 17:32:19 16.9375°C 62.4375% 3.37V v254 52.0681 / 5.11288 4939 ttn.v3 4.072km -107 -10.25 867.9MHz, SF10BW125, 4/5CR
0.533km -107 -12.8 867.9MHz, SF10BW125, 4/5CR
2.425km -132 -16 867.9MHz, SF10BW125, 4/5CR
- -132 -16 867.9MHz, SF10BW125, 4/5CR
2026-05-08 17:16:18 17.0625°C 63.375% 3.37V v254 52.0681 / 5.11288 4938 ttn.v3 0.533km -102 -8.5 868.5MHz, SF10BW125, 4/5CR
2026-05-08 17:00:17 17.1875°C 66.25% 3.37V v254 52.0681 / 5.11288 4937 ttn.v3 0.533km -106 -6.2 867.7MHz, SF10BW125, 4/5CR
2026-05-08 16:44:15 17.375°C 65.4375% 3.37V v254 52.0681 / 5.11288 4936 ttn.v3 0.533km -104 -5.5 868.3MHz, SF10BW125, 4/5CR
2026-05-08 16:28:14 17.5625°C 65.6875% 3.37V v254 52.0681 / 5.11288 4935 ttn.v3 0.533km -105 -7.5 867.5MHz, SF10BW125, 4/5CR
2026-05-08 16:12:13 17.8125°C 68.375% 3.37V v254 52.0681 / 5.11288 4934 ttn.v3 0.533km -106 -2.2 868.1MHz, SF10BW125, 4/5CR
2.425km -130 -16.5 868.1MHz, SF10BW125, 4/5CR
2026-05-08 15:56:11 17.4375°C 64.4375% 3.37V v254 52.0681 / 5.11288 4933 ttn.v3 0.533km -105 -8.5 867.3MHz, SF10BW125, 4/5CR
2026-05-08 15:40:10 17.375°C 67.875% 3.37V v254 52.0681 / 5.11288 4932 ttn.v3 0.533km -100 -7.2 868.5MHz, SF10BW125, 4/5CR
2026-05-08 15:24:09 17.5625°C 69.4375% 3.37V v254 52.0681 / 5.11288 4931 ttn.v3 4.072km -109 -6.25 867.1MHz, SF10BW125, 4/5CR
0.533km -107 -8.8 867.1MHz, SF10BW125, 4/5CR
- -129 -13.25 867.1MHz, SF10BW125, 4/5CR
2.425km -133 -16.75 867.1MHz, SF10BW125, 4/5CR
2026-05-08 15:08:08 17.4375°C 68.25% 3.37V v254 52.0681 / 5.11288 4930 ttn.v3 0.533km -103 -4.8 868.3MHz, SF10BW125, 4/5CR
2026-05-08 14:52:06 17.75°C 68.5% 3.37V v254 52.0681 / 5.11288 4929 ttn.v3 2.425km -130 -14.25 867.9MHz, SF10BW125, 4/5CR
2026-05-08 14:36:05 18°C 68.0625% 3.37V v254 52.0681 / 5.11288 4928 ttn.v3 0.533km -107 -4.5 868.1MHz, SF10BW125, 4/5CR
2026-05-08 14:20:03 18.1875°C 67.8125% 3.37V v254 52.0681 / 5.11288 4927 ttn.v3 0.533km -105 -5.8 867.7MHz, SF10BW125, 4/5CR
2026-05-08 14:04:01 18.375°C 68.1875% 3.37V v254 52.0681 / 5.11288 4926 ttn.v3 0.533km -104 -5.8 868.5MHz, SF10BW125, 4/5CR
2026-05-08 13:47:59 18.4375°C 68.3125% 3.37V v254 52.0681 / 5.11288 4925 ttn.v3 0.533km -105 -5.2 867.5MHz, SF10BW125, 4/5CR
2026-05-08 13:31:58 18.0625°C 66.3125% 3.37V v254 52.0681 / 5.11288 4924 ttn.v3 0.533km -88 -8.2 868.3MHz, SF10BW125, 4/5CR
2026-05-08 13:15:56 18.625°C 67.5% 3.37V v254 52.0681 / 5.11288 4923 ttn.v3 0.533km -107 -7.5 867.3MHz, SF10BW125, 4/5CR
4.072km -107 -7.75 867.3MHz, SF10BW125, 4/5CR
2026-05-08 12:59:55 18.3125°C 70.875% 3.37V v254 52.0681 / 5.11288 4922 ttn.v3 0.533km -106 -14.5 868.1MHz, SF10BW125, 4/5CR
2026-05-08 12:43:53 17.3125°C 74.25% 3.37V v254 52.0681 / 5.11288 4921 ttn.v3 0.533km -107 -9.8 867.1MHz, SF10BW125, 4/5CR
4.072km -101 -13 867.1MHz, SF10BW125, 4/5CR
2.425km -132 -15.5 867.1MHz, SF10BW125, 4/5CR
2026-05-08 12:27:52 16.4375°C 78.875% 3.37V v254 52.0681 / 5.11288 4920 ttn.v3 0.533km -107 -5.5 868.5MHz, SF10BW125, 4/5CR
2026-05-08 12:11:52 15.6875°C 83.6875% 3.37V v254 52.0681 / 5.11288 4919 ttn.v3 0.533km -107 -11.2 867.9MHz, SF10BW125, 4/5CR
4.072km -106 -14 867.9MHz, SF10BW125, 4/5CR
2026-05-08 11:39:52 14.875°C 90.375% 3.37V v254 52.0681 / 5.11288 4917 ttn.v3 0.533km -105 -8.2 867.7MHz, SF10BW125, 4/5CR
- -131 -15 867.7MHz, SF10BW125, 4/5CR
1.517km -125 -15.8 867.7MHz, SF10BW125, 4/5CR
2026-05-08 11:23:52 14.4375°C 90.3125% 3.37V v254 52.0681 / 5.11288 4916 ttn.v3 0.533km -106 -5.8 868.1MHz, SF10BW125, 4/5CR
- -134 -18.25 868.1MHz, SF10BW125, 4/5CR
2026-05-08 11:07:53 14.125°C 92.8125% 3.37V v254 52.0681 / 5.11288 4915 ttn.v3 0.533km -106 -15.2 867.5MHz, SF10BW125, 4/5CR
2026-05-08 10:51:53 13.625°C 98.6875% 3.37V v254 52.0681 / 5.11288 4914 ttn.v3 0.533km -106 -12.8 868.5MHz, SF10BW125, 4/5CR
2026-05-08 10:35:54 13.1875°C 101.312% 3.37V v254 52.0681 / 5.11288 4913 ttn.v3 0.533km -105 -10.5 867.3MHz, SF10BW125, 4/5CR
2026-05-08 10:19:55 12.8125°C 104.562% 3.37V v254 52.0681 / 5.11288 4912 ttn.v3 0.533km -105 -10 868.3MHz, SF10BW125, 4/5CR
2026-05-08 09:47:58 12°C 110.5% 3.38V v254 52.0681 / 5.11288 4910 ttn.v3 0.533km -107 -7.2 868.1MHz, SF10BW125, 4/5CR
2026-05-08 09:31:59 11.625°C 112.938% 3.37V v254 52.0681 / 5.11288 4909 ttn.v3 2.425km -131 -15.25 867.9MHz, SF10BW125, 4/5CR
2026-05-08 09:00:03 11.125°C 118.562% 3.37V v254 52.0681 / 5.11288 4907 ttn.v3 0.533km -104 -8 867.7MHz, SF10BW125, 4/5CR
4.072km -107 -14 867.7MHz, SF10BW125, 4/5CR
1.517km -125 -17.5 867.7MHz, SF10BW125, 4/5CR
2026-05-08 08:28:07 10.625°C 0% 3.37V v254 52.0681 / 5.11288 4905 ttn.v3 0.533km -105 -9.5 867.5MHz, SF10BW125, 4/5CR
2026-05-08 08:12:09 10.5°C 2.875% 3.38V v254 52.0681 / 5.11288 4904 ttn.v3 0.533km -104 -5.2 868.1MHz, SF10BW125, 4/5CR
- -131 -15.25 868.1MHz, SF10BW125, 4/5CR
2026-05-08 07:56:11 10.3125°C 3.9375% 3.37V v254 52.0681 / 5.11288 4903 ttn.v3 0.533km -105 -13 867.3MHz, SF10BW125, 4/5CR
2026-05-08 07:40:13 10.25°C 3% 3.38V v254 52.0681 / 5.11288 4902 ttn.v3 0.533km -104 -11.5 868.5MHz, SF10BW125, 4/5CR
2026-05-08 07:24:15 10.25°C 3.25% 3.38V v254 52.0681 / 5.11288 4901 ttn.v3 4.072km -107 -8.25 867.1MHz, SF10BW125, 4/5CR
- -129 -12.5 867.1MHz, SF10BW125, 4/5CR
2026-05-08 06:52:19 10.25°C 3.875% 3.37V v254 52.0681 / 5.11288 4899 ttn.v3 0.533km -107 -10.5 867.9MHz, SF10BW125, 4/5CR
2026-05-08 06:36:21 10.1875°C 1.125% 3.37V v254 52.0681 / 5.11288 4898 ttn.v3 0.533km -105 -7.8 868.1MHz, SF10BW125, 4/5CR
2026-05-08 06:20:23 10.3125°C -0.875% 3.37V v254 52.0681 / 5.11288 4897 ttn.v3 0.533km -103 -5.8 867.7MHz, SF10BW125, 4/5CR
4.072km -103 -9.25 867.7MHz, SF10BW125, 4/5CR
2026-05-08 05:48:27 10.5°C -3.375% 3.37V v254 52.0681 / 5.11288 4895 ttn.v3 0.533km -100 -8 867.5MHz, SF10BW125, 4/5CR
2026-05-08 05:16:30 10.625°C 118.375% 3.37V v254 52.0681 / 5.11288 4893 ttn.v3 0.533km -105 -7 867.3MHz, SF10BW125, 4/5CR
2026-05-08 05:00:32 10.6875°C 117.5% 3.37V v254 52.0681 / 5.11288 4892 ttn.v3 0.533km -106 -5.8 868.1MHz, SF10BW125, 4/5CR
2026-05-08 04:44:34 10.8125°C 116.562% 3.37V v254 52.0681 / 5.11288 4891 ttn.v3 4.072km -108 -7 867.1MHz, SF10BW125, 4/5CR
0.533km -106 -9.2 867.1MHz, SF10BW125, 4/5CR
2026-05-08 04:28:35 10.875°C 115.062% 3.37V v254 52.0681 / 5.11288 4890 ttn.v3 0.533km -105 -7.8 868.5MHz, SF10BW125, 4/5CR
- -130 -16.25 868.5MHz, SF10BW125, 4/5CR
2.425km -127 -16.75 868.5MHz, SF10BW125, 4/5CR
2026-05-08 04:12:37 11°C 114.625% 3.37V v254 52.0681 / 5.11288 4889 ttn.v3 0.533km -107 -13.2 867.9MHz, SF10BW125, 4/5CR
2026-05-08 03:56:38 11.1875°C 111.312% 3.37V v254 52.0681 / 5.11288 4888 ttn.v3 0.533km -105 -14.8 868.3MHz, SF10BW125, 4/5CR
2026-05-08 03:40:40 11.25°C 111.438% 3.37V v254 52.0681 / 5.11288 4887 ttn.v3 0.533km -105 -7.2 867.7MHz, SF10BW125, 4/5CR
4.072km -104 -8 867.7MHz, SF10BW125, 4/5CR
2026-05-08 03:24:41 11.3125°C 109.125% 3.37V v254 52.0681 / 5.11288 4886 ttn.v3 0.533km -105 -7.8 868.1MHz, SF10BW125, 4/5CR
2.425km -130 -15.25 868.1MHz, SF10BW125, 4/5CR
2026-05-08 03:08:43 11.4375°C 109.188% 3.37V v254 52.0681 / 5.11288 4885 ttn.v3 0.533km -102 -7 867.5MHz, SF10BW125, 4/5CR
2026-05-08 02:52:44 11.5625°C 108% 3.37V v254 52.0681 / 5.11288 4884 ttn.v3 - -131 -16.5 868.5MHz, SF10BW125, 4/5CR
2026-05-08 02:36:45 11.75°C 107.125% 3.37V v254 52.0681 / 5.11288 4883 ttn.v3 0.533km -106 -9 867.3MHz, SF10BW125, 4/5CR
2026-05-08 02:04:51 12°C 104.812% 3.37V v254 52.0681 / 5.11276 4881 ttn.v3 - -127 -11.75 867.1MHz, SF10BW125, 4/5CR
0.541km -106 -14.5 867.1MHz, SF10BW125, 4/5CR
4.078km -110 -15 867.1MHz, SF10BW125, 4/5CR
- -131 -15.75 867.1MHz, SF10BW125, 4/5CR
2.417km -133 -16.25 867.1MHz, SF10BW125, 4/5CR
2026-05-08 01:48:52 12.0625°C 104.938% 3.37V v254 52.0681 / 5.11276 4880 ttn.v3 0.541km -106 -4.8 868.1MHz, SF10BW125, 4/5CR
- -132 -17 868.1MHz, SF10BW125, 4/5CR
2026-05-08 01:32:53 12.1875°C 100.375% 3.37V v254 52.0681 / 5.11276 4879 ttn.v3 0.541km -107 -12.5 867.9MHz, SF10BW125, 4/5CR
2.417km -132 -15.5 867.9MHz, SF10BW125, 4/5CR
- -132 -17 867.9MHz, SF10BW125, 4/5CR
2026-05-08 01:16:54 12.25°C 100.188% 3.37V v254 52.0681 / 5.11276 4878 ttn.v3 0.541km -109 -9.5 868.5MHz, SF10BW125, 4/5CR
2026-05-08 01:00:55 12.25°C 99.0625% 3.37V v254 52.0681 / 5.11276 4877 ttn.v3 0.541km -105 -4.5 867.7MHz, SF10BW125, 4/5CR
4.078km -103 -9.5 867.7MHz, SF10BW125, 4/5CR
2026-05-08 00:44:56 12.375°C 98.625% 3.37V v254 52.0681 / 5.11276 4876 ttn.v3 0.541km -103 -8.2 868.3MHz, SF10BW125, 4/5CR
2026-05-08 00:28:57 12.5625°C 98.875% 3.37V v254 52.0681 / 5.11276 4875 ttn.v3 0.541km -105 -4.8 867.5MHz, SF10BW125, 4/5CR
2026-05-08 00:12:58 12.6875°C 92.9375% 3.37V v254 52.0681 / 5.11276 4874 ttn.v3 0.541km -106 -8.5 868.1MHz, SF10BW125, 4/5CR
- -130 -14.5 868.1MHz, SF10BW125, 4/5CR
2026-05-07 23:56:58 12.875°C 89.1875% 3.37V v254 52.0681 / 5.11276 4873 ttn.v3 0.541km -105 -8.5 867.3MHz, SF10BW125, 4/5CR
2026-05-07 23:40:59 13.0625°C 86.5% 3.37V v254 52.0681 / 5.11276 4872 ttn.v3 4.078km -93 -17 868.5MHz, SF10BW125, 4/5CR
2026-05-07 23:24:59 13.3125°C 86.5% 3.37V v254 52.0681 / 5.11276 4871 ttn.v3 4.078km -110 -10.5 867.1MHz, SF10BW125, 4/5CR
0.541km -107 -13 867.1MHz, SF10BW125, 4/5CR
2.417km -132 -15 867.1MHz, SF10BW125, 4/5CR
2026-05-07 22:53:00 13.625°C 81.75% 3.37V v254 52.0681 / 5.11276 4869 ttn.v3 4.078km -111 -13 867.9MHz, SF10BW125, 4/5CR
0.541km -107 -14.5 867.9MHz, SF10BW125, 4/5CR
2026-05-07 22:37:00 13.75°C 81.3125% 3.37V v254 52.0681 / 5.11276 4868 ttn.v3 0.541km -107 -6.2 868.1MHz, SF10BW125, 4/5CR
- -131 -15 868.1MHz, SF10BW125, 4/5CR
2.417km -131 -15.5 868.1MHz, SF10BW125, 4/5CR
2026-05-07 22:21:01 13.9375°C 79.25% 3.37V v254 52.0681 / 5.11276 4867 ttn.v3 0.541km -104 -5.8 867.7MHz, SF10BW125, 4/5CR
4.078km -103 -8.5 867.7MHz, SF10BW125, 4/5CR
2.417km -133 -17 867.7MHz, SF10BW125, 4/5CR
2026-05-07 22:05:01 14.125°C 77.5% 3.37V v254 52.0681 / 5.11276 4866 ttn.v3 0.541km -104 -10 868.5MHz, SF10BW125, 4/5CR
- -131 -16.75 868.5MHz, SF10BW125, 4/5CR
2026-05-07 21:49:01 14.25°C 75.6875% 3.37V v254 52.0681 / 5.11276 4865 ttn.v3 0.541km -101 -11.5 867.5MHz, SF10BW125, 4/5CR
2026-05-07 21:17:02 14.4375°C 75.125% 3.37V v254 52.0681 / 5.11276 4863 ttn.v3 0.541km -105 -5.5 867.3MHz, SF10BW125, 4/5CR
4.078km -109 -9 867.3MHz, SF10BW125, 4/5CR
2026-05-07 21:01:02 14.375°C 75.5% 3.37V v254 52.0681 / 5.11276 4862 ttn.v3 0.541km -105 -5.2 868.1MHz, SF10BW125, 4/5CR
2026-05-07 20:45:02 14.75°C 74% 3.37V v254 52.0681 / 5.11276 4861 ttn.v3 0.541km -106 -7.2 867.1MHz, SF10BW125, 4/5CR
- -127 -10.25 867.1MHz, SF10BW125, 4/5CR
4.078km -111 -14.5 867.1MHz, SF10BW125, 4/5CR
2026-05-07 20:29:01 15.0625°C 70.875% 3.37V v254 52.0681 / 5.11276 4860 ttn.v3 0.541km -106 -5.8 868.5MHz, SF10BW125, 4/5CR
2026-05-07 20:13:01 15.1875°C 70.8125% 3.37V v254 52.0681 / 5.11276 4859 ttn.v3 0.541km -107 -12.2 867.9MHz, SF10BW125, 4/5CR
2026-05-07 19:57:00 15.25°C 70.625% 3.37V v254 52.0681 / 5.11276 4858 ttn.v3 0.541km -101 -8.8 868.3MHz, SF10BW125, 4/5CR
2026-05-07 19:41:00 15.4375°C 69.4375% 3.37V v254 52.0681 / 5.11276 4857 ttn.v3 0.541km -104 -3.2 867.7MHz, SF10BW125, 4/5CR
2026-05-07 19:24:59 15.5625°C 69.25% 3.37V v254 52.0681 / 5.11276 4856 ttn.v3 0.541km -105 -7.2 868.1MHz, SF10BW125, 4/5CR
2026-05-07 19:08:59 15.6875°C 68.375% 3.37V v254 52.0681 / 5.11276 4855 ttn.v3 0.541km -105 -8 867.5MHz, SF10BW125, 4/5CR
2026-05-07 18:52:58 15.8125°C 67.4375% 3.37V v254 52.0681 / 5.11276 4854 ttn.v3 - -129 -15.75 868.5MHz, SF10BW125, 4/5CR
2026-05-07 18:36:58 15.9375°C 66.75% 3.37V v254 52.0681 / 5.11276 4853 ttn.v3 0.541km -106 -9.2 867.3MHz, SF10BW125, 4/5CR
2.417km -132 -16.5 867.3MHz, SF10BW125, 4/5CR
2026-05-07 18:20:57 16.1875°C 65.25% 3.37V v254 52.0681 / 5.11276 4852 ttn.v3 0.541km -105 -12.8 868.3MHz, SF10BW125, 4/5CR
2026-05-07 18:04:56 16.4375°C 65.0625% 3.37V v254 52.0681 / 5.11276 4851 ttn.v3 0.541km -107 -13.2 867.1MHz, SF10BW125, 4/5CR
4.078km -108 -14.5 867.1MHz, SF10BW125, 4/5CR
2026-05-07 17:48:55 16.6875°C 64.5% 3.37V v254 52.0681 / 5.11276 4850 ttn.v3 0.541km -106 -6 868.1MHz, SF10BW125, 4/5CR
- -131 -14.5 868.1MHz, SF10BW125, 4/5CR
2026-05-07 17:32:54 17.1875°C 63.875% 3.37V v254 52.0681 / 5.11276 4849 ttn.v3 0.541km -106 -11 867.9MHz, SF10BW125, 4/5CR
2026-05-07 17:16:52 17.3125°C 63.5% 3.37V v254 52.0681 / 5.11276 4848 ttn.v3 0.541km -106 -13 868.5MHz, SF10BW125, 4/5CR
- -131 -17 868.5MHz, SF10BW125, 4/5CR
2026-05-07 17:00:51 17.0625°C 63.375% 3.37V v254 52.0681 / 5.11276 4847 ttn.v3 0.541km -106 -7 867.7MHz, SF10BW125, 4/5CR
4.078km -105 -12.25 867.7MHz, SF10BW125, 4/5CR
2026-05-07 16:44:50 17.1875°C 63.5% 3.37V v254 52.0681 / 5.11276 4846 ttn.v3 0.541km -106 -8.2 868.3MHz, SF10BW125, 4/5CR
2026-05-07 16:28:49 17.0625°C 63% 3.37V v254 52.0681 / 5.11276 4845 ttn.v3 0.541km -103 -9.8 867.5MHz, SF10BW125, 4/5CR
2026-05-07 16:12:48 17.0625°C 62.9375% 3.37V v254 52.0681 / 5.11276 4844 ttn.v3 0.541km -106 -2.8 868.1MHz, SF10BW125, 4/5CR
2026-05-07 15:56:46 16.875°C 61.25% 3.37V v254 52.0681 / 5.11276 4843 ttn.v3 0.541km -105 -3 867.3MHz, SF10BW125, 4/5CR
2026-05-07 15:40:45 17.0625°C 63.0625% 3.37V v254 52.0681 / 5.11276 4842 ttn.v3 0.541km -96 -5 868.5MHz, SF10BW125, 4/5CR
2026-05-07 15:24:44 17.0625°C 63.6875% 3.37V v254 52.0681 / 5.11276 4841 ttn.v3 4.078km -105 -11.25 867.1MHz, SF10BW125, 4/5CR
0.541km -106 -13 867.1MHz, SF10BW125, 4/5CR
- -129 -15 867.1MHz, SF10BW125, 4/5CR
2026-05-07 15:08:42 16.9375°C 64.375% 3.37V v254 52.0681 / 5.11276 4840 ttn.v3 0.541km -105 -8 868.3MHz, SF10BW125, 4/5CR
2026-05-07 14:52:41 17.125°C 62.9375% 3.37V v254 52.0681 / 5.11276 4839 ttn.v3 0.541km -105 -7.8 867.9MHz, SF10BW125, 4/5CR
2.417km -131 -15.5 867.9MHz, SF10BW125, 4/5CR
1.511km -125 -15.5 867.9MHz, SF10BW125, 4/5CR
2026-05-07 14:36:40 16.75°C 63.8125% 3.37V v254 52.0681 / 5.11276 4838 ttn.v3 0.541km -106 -12.2 868.1MHz, SF10BW125, 4/5CR
2026-05-07 14:20:38 17.125°C 63.5% 3.37V v254 52.0681 / 5.11276 4837 ttn.v3 0.541km -105 -4.8 867.7MHz, SF10BW125, 4/5CR
4.078km -103 -12.75 867.7MHz, SF10BW125, 4/5CR
2026-05-07 14:04:37 17.5°C 62.6875% 3.37V v254 52.0681 / 5.11276 4836 ttn.v3 0.541km -105 -10.8 868.5MHz, SF10BW125, 4/5CR
2026-05-07 13:48:35 17.5°C 66.1875% 3.37V v254 52.0681 / 5.11276 4835 ttn.v3 0.541km -105 -9.5 867.5MHz, SF10BW125, 4/5CR
2026-05-07 13:32:34 16.625°C 69.25% 3.37V v254 52.0681 / 5.11276 4834 ttn.v3 0.541km -105 -9.8 868.3MHz, SF10BW125, 4/5CR
2026-05-07 13:16:34 15.5°C 70.875% 3.37V v254 52.0681 / 5.11276 4833 ttn.v3 0.541km -105 -7.2 867.3MHz, SF10BW125, 4/5CR
4.078km -108 -9.75 867.3MHz, SF10BW125, 4/5CR
2.417km -130 -14.25 867.3MHz, SF10BW125, 4/5CR
2026-05-07 13:00:33 14.9375°C 74.0625% 3.37V v254 52.0681 / 5.11276 4832 ttn.v3 0.541km -107 -3.8 868.1MHz, SF10BW125, 4/5CR
2026-05-07 12:44:33 14.9375°C 74.6875% 3.37V v254 52.0681 / 5.11276 4831 ttn.v3 0.541km -106 -6.2 867.1MHz, SF10BW125, 4/5CR
- -128 -12 867.1MHz, SF10BW125, 4/5CR
2026-05-07 12:28:32 14.3125°C 75.375% 3.37V v254 52.0681 / 5.11276 4830 ttn.v3 0.541km -104 -7.2 868.5MHz, SF10BW125, 4/5CR
- -129 -14 868.5MHz, SF10BW125, 4/5CR
2026-05-07 12:12:32 14.4375°C 75.8125% 3.37V v254 52.0681 / 5.11276 4829 ttn.v3 4.078km -110 -11 867.9MHz, SF10BW125, 4/5CR
2.417km -129 -13.5 867.9MHz, SF10BW125, 4/5CR
0.541km -106 -14.2 867.9MHz, SF10BW125, 4/5CR
2026-05-07 11:56:33 14.125°C 78.1875% 3.37V v254 52.0681 / 5.11276 4828 ttn.v3 0.541km -106 -12.8 868.3MHz, SF10BW125, 4/5CR
2026-05-07 11:40:33 13.4375°C 81.25% 3.37V v254 52.0681 / 5.11276 4827 ttn.v3 0.541km -105 -3 867.7MHz, SF10BW125, 4/5CR
1.511km -124 -17.5 867.7MHz, SF10BW125, 4/5CR
2026-05-07 11:24:33 12.9375°C 83.3125% 3.37V v254 52.0681 / 5.11276 4826 ttn.v3 0.541km -106 -2.2 868.1MHz, SF10BW125, 4/5CR
1.511km -125 -17.5 868.1MHz, SF10BW125, 4/5CR
2026-05-07 11:08:34 12.5625°C 88.5625% 3.37V v254 52.0681 / 5.11276 4825 ttn.v3 0.541km -105 -3.2 867.5MHz, SF10BW125, 4/5CR
2026-05-07 10:52:35 11.9375°C 88.6875% 3.37V v254 52.0681 / 5.11276 4824 ttn.v3 0.541km -104 -10.8 868.5MHz, SF10BW125, 4/5CR
- -133 -18.5 868.5MHz, SF10BW125, 4/5CR
2026-05-07 10:36:36 11.5625°C 90% 3.37V v254 52.0681 / 5.11276 4823 ttn.v3 0.541km -105 -7.8 867.3MHz, SF10BW125, 4/5CR
2026-05-07 10:20:37 11.0625°C 93.875% 3.37V v254 52.0681 / 5.11276 4822 ttn.v3 0.541km -104 -8 868.3MHz, SF10BW125, 4/5CR
2026-05-07 10:04:39 10.75°C 98.0625% 3.37V v254 52.0681 / 5.11276 4821 ttn.v3 0.541km -105 -7.5 867.1MHz, SF10BW125, 4/5CR
2026-05-07 09:48:41 10.25°C 99.0625% 3.37V v254 52.0681 / 5.11276 4820 ttn.v3 0.541km -106 -4 868.1MHz, SF10BW125, 4/5CR
2026-05-07 09:16:45 9.75°C 105.75% 3.38V v254 52.0681 / 5.11276 4818 ttn.v3 0.541km -100 -10.5 868.5MHz, SF10BW125, 4/5CR
- -132 -17 868.5MHz, SF10BW125, 4/5CR
2026-05-07 09:00:47 9.5625°C 107.312% 3.37V v254 52.0681 / 5.11276 4817 ttn.v3 0.541km -105 -4 867.7MHz, SF10BW125, 4/5CR
4.078km -103 -15 867.7MHz, SF10BW125, 4/5CR
2026-05-07 08:28:51 9.25°C 117.875% 3.38V v254 52.0681 / 5.11276 4815 ttn.v3 0.541km -106 -11.5 867.5MHz, SF10BW125, 4/5CR
2026-05-07 07:56:56 8.875°C -0.5% 3.37V v254 52.0681 / 5.11276 4813 ttn.v3 0.541km -105 -8.8 867.3MHz, SF10BW125, 4/5CR
2026-05-07 07:40:59 8.6875°C 3.6875% 3.37V v254 52.0681 / 5.11276 4812 ttn.v3 0.541km -100 -8.8 868.5MHz, SF10BW125, 4/5CR
- -129 -16.5 868.5MHz, SF10BW125, 4/5CR
2026-05-07 07:25:01 8.5625°C 6.9375% 3.38V v254 52.0681 / 5.11276 4811 ttn.v3 0.541km -105 -6.8 867.1MHz, SF10BW125, 4/5CR
- -129 -12 867.1MHz, SF10BW125, 4/5CR
2026-05-07 07:09:04 8.6875°C 5% 3.38V v254 52.0681 / 5.11276 4810 ttn.v3 0.541km -99 -6.8 868.3MHz, SF10BW125, 4/5CR
2026-05-07 06:53:06 8.625°C 4.8125% 3.37V v254 52.0681 / 5.11276 4809 ttn.v3 0.541km -106 -8 867.9MHz, SF10BW125, 4/5CR
- -134 -18.5 867.9MHz, SF10BW125, 4/5CR
2026-05-07 06:37:09 8.5625°C 4.9375% 3.38V v254 52.0681 / 5.11276 4808 ttn.v3 0.541km -106 -4.5 868.1MHz, SF10BW125, 4/5CR
2.417km -131 -16 868.1MHz, SF10BW125, 4/5CR
2026-05-07 06:21:12 8.4375°C 5.1875% 3.38V v254 52.0681 / 5.11276 4807 ttn.v3 0.541km -105 -5.5 867.7MHz, SF10BW125, 4/5CR
2026-05-07 06:05:15 8.375°C 3% 3.37V v254 52.0681 / 5.11276 4806 ttn.v3 0.541km -102 -6.8 868.5MHz, SF10BW125, 4/5CR
2026-05-07 05:49:17 8.3125°C -0.375% 3.37V v254 52.0681 / 5.11276 4805 ttn.v3 0.541km -103 -7.8 867.5MHz, SF10BW125, 4/5CR
2026-05-07 05:33:20 8.4375°C -1.875% 3.37V v254 52.0681 / 5.11276 4804 ttn.v3 0.541km -101 -6.8 868.3MHz, SF10BW125, 4/5CR
2026-05-07 05:17:22 8.4375°C -3.3125% 3.38V v254 52.0681 / 5.11276 4803 ttn.v3 0.541km -104 -4.5 867.3MHz, SF10BW125, 4/5CR
4.078km -101 -14.25 867.3MHz, SF10BW125, 4/5CR
- -132 -16.5 867.3MHz, SF10BW125, 4/5CR
2026-05-07 05:01:25 8.4375°C -5.4375% 3.37V v254 52.0681 / 5.11276 4802 ttn.v3 0.541km -106 -6 868.1MHz, SF10BW125, 4/5CR
1.511km -125 -17.8 868.1MHz, SF10BW125, 4/5CR
2026-05-07 04:45:27 8.4375°C 115.688% 3.38V v254 52.0681 / 5.11276 4801 ttn.v3 0.541km -106 -7.2 867.1MHz, SF10BW125, 4/5CR
4.078km -105 -9.75 867.1MHz, SF10BW125, 4/5CR
- -128 -11.75 867.1MHz, SF10BW125, 4/5CR
2026-05-07 04:29:30 8.5°C 112.5% 3.37V v254 52.0681 / 5.11276 4800 ttn.v3 0.541km -102 -5.2 868.5MHz, SF10BW125, 4/5CR
2026-05-07 04:13:32 9.0625°C 107.812% 3.38V v254 52.0681 / 5.11276 4799 ttn.v3 0.541km -106 -8.2 867.9MHz, SF10BW125, 4/5CR
2026-05-07 03:57:34 9.375°C 104.5% 3.38V v254 52.0681 / 5.11276 4798 ttn.v3 0.541km -93 -15 868.3MHz, SF10BW125, 4/5CR
2026-05-07 03:41:37 9.625°C 101.125% 3.38V v254 52.0681 / 5.11276 4797 ttn.v3 0.541km -104 -6 867.7MHz, SF10BW125, 4/5CR
2026-05-07 03:25:39 9.75°C 100.188% 3.37V v254 52.0681 / 5.11276 4796 ttn.v3 0.541km -105 -4.2 868.1MHz, SF10BW125, 4/5CR
1.511km -124 -16.8 868.1MHz, SF10BW125, 4/5CR
2026-05-07 03:09:41 9.8125°C 99.125% 3.37V v254 52.0681 / 5.11276 4795 ttn.v3 0.541km -99 -15 867.5MHz, SF10BW125, 4/5CR
2026-05-07 02:53:43 10°C 97.625% 3.37V v254 52.0681 / 5.11276 4794 ttn.v3 0.541km -104 -7 868.5MHz, SF10BW125, 4/5CR
2026-05-07 02:37:45 10.125°C 96.1875% 3.37V v254 52.0681 / 5.11276 4793 ttn.v3 0.541km -105 -6.8 867.3MHz, SF10BW125, 4/5CR
4.078km -99 -12 867.3MHz, SF10BW125, 4/5CR
- -130 -14.5 867.3MHz, SF10BW125, 4/5CR
2026-05-07 02:05:49 10.375°C 95.0625% 3.37V v254 52.0681 / 5.11276 4791 ttn.v3 0.541km -106 -5.8 867.1MHz, SF10BW125, 4/5CR
- -129 -14 867.1MHz, SF10BW125, 4/5CR
2026-05-07 01:49:51 10.6875°C 91.375% 3.37V v254 52.0681 / 5.11276 4790 ttn.v3 0.541km -106 -10.2 868.1MHz, SF10BW125, 4/5CR
- -117 -15.25 868.1MHz, SF10BW125, 4/5CR
2026-05-07 01:33:52 10.9375°C 92.4375% 3.37V v254 52.0681 / 5.11276 4789 ttn.v3 0.541km -107 -16 867.9MHz, SF10BW125, 4/5CR
2026-05-07 01:17:54 11.25°C 88.75% 3.37V v254 52.0681 / 5.11276 4788 ttn.v3 0.541km -103 -8 868.5MHz, SF10BW125, 4/5CR
2026-05-07 01:01:55 11.5°C 87.875% 3.37V v254 52.0681 / 5.11276 4787 ttn.v3 0.541km -104 -6.5 867.7MHz, SF10BW125, 4/5CR
2026-05-07 00:30:01 11.75°C 86.0625% 3.37V v254 52.0681 / 5.11279 4785 ttn.v3 0.539km -104 -9.5 867.5MHz, SF10BW125, 4/5CR
2026-05-07 00:14:02 11.875°C 86% 3.37V v254 52.0681 / 5.11279 4784 ttn.v3 0.539km -105 -4.8 868.1MHz, SF10BW125, 4/5CR
1.513km -124 -18 868.1MHz, SF10BW125, 4/5CR
2026-05-06 23:58:03 12°C 84.1875% 3.37V v254 52.0681 / 5.11279 4783 ttn.v3 0.539km -106 -10.5 867.3MHz, SF10BW125, 4/5CR
2026-05-06 23:42:04 12.1875°C 83.6875% 3.37V v254 52.0681 / 5.11279 4782 ttn.v3 0.539km -105 -16.2 868.5MHz, SF10BW125, 4/5CR
2026-05-06 23:26:05 12.1875°C 83.4375% 3.37V v254 52.0681 / 5.11279 4781 ttn.v3 0.539km -106 -12.2 867.1MHz, SF10BW125, 4/5CR
4.076km -109 -14.75 867.1MHz, SF10BW125, 4/5CR
2026-05-06 22:54:07 12.5°C 83.5625% 3.38V v254 52.0681 / 5.11279 4779 ttn.v3 0.539km -105 -11.5 867.9MHz, SF10BW125, 4/5CR
2.419km -129 -12 867.9MHz, SF10BW125, 4/5CR
2026-05-06 22:38:08 12.5625°C 84.3125% 3.37V v254 52.0681 / 5.11279 4778 ttn.v3 0.539km -104 -6.2 868.1MHz, SF10BW125, 4/5CR
2026-05-06 22:22:09 12.75°C 85.0625% 3.37V v254 52.0681 / 5.11279 4777 ttn.v3 0.539km -105 -8.2 867.7MHz, SF10BW125, 4/5CR
2026-05-06 21:50:11 13.125°C 86.75% 3.37V v254 52.0681 / 5.11279 4775 ttn.v3 0.539km -104 -7.2 867.5MHz, SF10BW125, 4/5CR
2026-05-06 21:34:12 13.1875°C 81.3125% 3.37V v254 52.0681 / 5.11279 4774 ttn.v3 0.539km -101 -9 868.3MHz, SF10BW125, 4/5CR
2026-05-06 21:18:12 13.3125°C 71% 3.37V v254 52.0681 / 5.11279 4773 ttn.v3 0.539km -105 -6.5 867.3MHz, SF10BW125, 4/5CR
- -131 -15 867.3MHz, SF10BW125, 4/5CR
2.419km -131 -15.75 867.3MHz, SF10BW125, 4/5CR
2026-05-06 21:02:13 13.375°C 70.9375% 3.37V v254 52.0681 / 5.11279 4772 ttn.v3 0.539km -105 -2 868.1MHz, SF10BW125, 4/5CR
- -132 -18 868.1MHz, SF10BW125, 4/5CR
2026-05-06 20:46:13 13.5°C 70.75% 3.37V v254 52.0681 / 5.11279 4771 ttn.v3 0.539km -106 -4.5 867.1MHz, SF10BW125, 4/5CR
- -127 -15.25 867.1MHz, SF10BW125, 4/5CR
2026-05-06 20:30:13 13.6875°C 71.5625% 3.37V v254 52.0681 / 5.11279 4770 ttn.v3 0.539km -106 -9.5 868.5MHz, SF10BW125, 4/5CR
2026-05-06 20:14:14 13.75°C 68.9375% 3.37V v254 52.0681 / 5.11279 4769 ttn.v3 2.419km -129 -13.75 867.9MHz, SF10BW125, 4/5CR
4.076km -102 -17.25 867.9MHz, SF10BW125, 4/5CR
2026-05-06 19:42:14 14.3125°C 66.8125% 3.37V v254 52.0681 / 5.11279 4767 ttn.v3 0.539km -105 -5.5 867.7MHz, SF10BW125, 4/5CR
2026-05-06 19:26:14 14.4375°C 66.125% 3.37V v254 52.0681 / 5.11279 4766 ttn.v3 0.539km -107 -8.8 868.1MHz, SF10BW125, 4/5CR
4.076km -107 -10.25 868.1MHz, SF10BW125, 4/5CR
- -132 -16.25 868.1MHz, SF10BW125, 4/5CR
2026-05-06 19:10:15 14.4375°C 65.0625% 3.37V v254 52.0681 / 5.11279 4765 ttn.v3 0.539km -104 -6.8 867.5MHz, SF10BW125, 4/5CR
2026-05-06 18:54:14 14.6875°C 64.25% 3.37V v254 52.0681 / 5.11279 4764 ttn.v3 0.539km -105 -15 868.5MHz, SF10BW125, 4/5CR
2026-05-06 18:38:14 14.875°C 65.75% 3.37V v254 52.0681 / 5.11279 4763 ttn.v3 0.539km -105 -7.2 867.3MHz, SF10BW125, 4/5CR
2026-05-06 18:22:14 14.8125°C 64.9375% 3.37V v254 52.0681 / 5.11279 4762 ttn.v3 0.539km -105 -13.8 868.3MHz, SF10BW125, 4/5CR
2026-05-06 18:06:14 15°C 64.4375% 3.37V v254 52.0681 / 5.11279 4761 ttn.v3 0.539km -106 -4.2 867.1MHz, SF10BW125, 4/5CR
- -126 -9.75 867.1MHz, SF10BW125, 4/5CR
4.076km -109 -11 867.1MHz, SF10BW125, 4/5CR
- -131 -17 867.1MHz, SF10BW125, 4/5CR
2026-05-06 17:50:13 15.0625°C 64.0625% 3.37V v254 52.0681 / 5.11279 4760 ttn.v3 0.539km -106 -2.5 868.1MHz, SF10BW125, 4/5CR
- -117 -16 868.1MHz, SF10BW125, 4/5CR
2026-05-06 17:34:13 15.1875°C 63.8125% 3.37V v254 52.0681 / 5.11279 4759 ttn.v3 4.076km -109 -7.5 867.9MHz, SF10BW125, 4/5CR
2.419km -131 -15.25 867.9MHz, SF10BW125, 4/5CR
2026-05-06 17:02:13 15°C 65.4375% 3.37V v254 52.0681 / 5.11279 4757 ttn.v3 0.539km -105 -13 867.7MHz, SF10BW125, 4/5CR
2026-05-06 16:14:13 14.625°C 64.9375% 3.37V v254 52.0681 / 5.11279 4754 ttn.v3 0.539km -106 -7.8 868.1MHz, SF10BW125, 4/5CR
2026-05-06 15:58:13 14.8125°C 64.5% 3.37V v254 52.0681 / 5.11279 4753 ttn.v3 0.539km -105 -12.2 867.3MHz, SF10BW125, 4/5CR
2026-05-06 15:42:13 14.8125°C 64.625% 3.37V v254 52.0681 / 5.11279 4752 ttn.v3 0.539km -104 -11.2 868.5MHz, SF10BW125, 4/5CR
- -129 -15 868.5MHz, SF10BW125, 4/5CR
2026-05-06 15:26:13 14.75°C 64.3125% 3.37V v254 52.0681 / 5.11279 4751 ttn.v3 0.539km -106 -10.2 867.1MHz, SF10BW125, 4/5CR
1.513km -124 -17 867.1MHz, SF10BW125, 4/5CR
2026-05-06 14:38:12 15.8125°C 60.625% 3.37V v254 52.0681 / 5.11279 4748 ttn.v3 0.539km -105 -5.5 868.1MHz, SF10BW125, 4/5CR
2026-05-06 14:22:12 15.8125°C 59% 3.37V v254 52.0681 / 5.11279 4747 ttn.v3 0.539km -105 -9.5 867.7MHz, SF10BW125, 4/5CR
2026-05-06 14:06:12 15.5625°C 63.125% 3.37V v254 52.0681 / 5.11279 4746 ttn.v3 0.539km -104 -7.2 868.5MHz, SF10BW125, 4/5CR
- -132 -17.25 868.5MHz, SF10BW125, 4/5CR
2026-05-06 13:50:11 15.5°C 64.125% 3.37V v254 52.0681 / 5.11279 4745 ttn.v3 0.539km -102 -6.2 867.5MHz, SF10BW125, 4/5CR
2026-05-06 13:18:11 15.5625°C 66.5% 3.37V v254 52.0681 / 5.11279 4743 ttn.v3 0.539km -110 -7.2 867.3MHz, SF10BW125, 4/5CR
2.419km -131 -15.75 867.3MHz, SF10BW125, 4/5CR
2026-05-06 13:02:10 15.8125°C 62.9375% 3.37V v254 52.0681 / 5.11279 4742 ttn.v3 0.539km -106 -9 868.1MHz, SF10BW125, 4/5CR
2026-05-06 12:46:10 15.625°C 64.125% 3.37V v254 52.0681 / 5.11279 4741 ttn.v3 0.539km -106 -6.5 867.1MHz, SF10BW125, 4/5CR
- -128 -11.75 867.1MHz, SF10BW125, 4/5CR
- -117 -15.75 867.1MHz, SF10BW125, 4/5CR
2026-05-06 12:30:10 14.8125°C 69.25% 3.37V v254 52.0681 / 5.11279 4740 ttn.v3 0.539km -105 -10.5 868.5MHz, SF10BW125, 4/5CR
2026-05-06 12:14:10 15.0625°C 69% 3.37V v254 52.0681 / 5.11279 4739 ttn.v3 0.539km -107 -13.5 867.9MHz, SF10BW125, 4/5CR
2026-05-06 11:42:10 15.0625°C 70.375% 3.37V v254 52.0681 / 5.11279 4737 ttn.v3 0.539km -105 -9.5 867.7MHz, SF10BW125, 4/5CR
2026-05-06 11:26:10 14.8125°C 69.75% 3.37V v254 52.0681 / 5.11279 4736 ttn.v3 0.539km -105 -5 868.1MHz, SF10BW125, 4/5CR
2026-05-06 11:10:09 14.375°C 76.75% 3.37V v254 52.0681 / 5.11279 4735 ttn.v3 0.539km -101 -11.2 867.5MHz, SF10BW125, 4/5CR
2026-05-06 10:54:10 14.0625°C 79.25% 3.37V v254 52.0681 / 5.11279 4734 ttn.v3 0.539km -102 -7.8 868.5MHz, SF10BW125, 4/5CR
- -128 -13.5 868.5MHz, SF10BW125, 4/5CR
2026-05-06 10:38:10 13.5°C 83.125% 3.37V v254 52.0681 / 5.11279 4733 ttn.v3 0.539km -104 -6 867.3MHz, SF10BW125, 4/5CR
4.076km -107 -10.25 867.3MHz, SF10BW125, 4/5CR
2026-05-06 10:22:11 13°C 89.125% 3.37V v254 52.0681 / 5.11279 4732 ttn.v3 0.539km -101 -10 868.3MHz, SF10BW125, 4/5CR
2026-05-06 10:06:11 12.875°C 91.6875% 3.37V v254 52.0681 / 5.11279 4731 ttn.v3 0.539km -106 -5.8 867.1MHz, SF10BW125, 4/5CR
2026-05-06 09:50:12 12.625°C 88.8125% 3.37V v254 52.0681 / 5.11279 4730 ttn.v3 0.539km -106 -6.8 868.1MHz, SF10BW125, 4/5CR
2026-05-06 09:34:13 12.4375°C 92.625% 3.37V v254 52.0681 / 5.11279 4729 ttn.v3 4.076km -107 -7.5 867.9MHz, SF10BW125, 4/5CR
0.539km -107 -16.8 867.9MHz, SF10BW125, 4/5CR
1.513km -125 -17 867.9MHz, SF10BW125, 4/5CR
2026-05-06 09:18:14 12.25°C 97% 3.37V v254 52.0681 / 5.11279 4728 ttn.v3 0.539km -101 -15 868.5MHz, SF10BW125, 4/5CR

Message count: 200
Node count: 1

Messages per node

Number of messages in list aboveNodes
200

Statistics per gateway

GatewayNumber of messagesNumber of nodesNodes
1921 (0.539km)
401
391 (4.076km)
251 (2.419km)
101 (1.513km)
31
31

Filter by dataset